NKS890 KLAX-KSEA

Flight info

Callsign NKS890
Flight time N/A
Altitude 38000
Route LADYJ4 CSTRO SHIMR LKV HAWKZ8
Aircraft A20N/M-SDE2E3FGHIRWXY/LB1

Departure

Time 2026-04-25 02:27
Airport Los Angeles International Airport (KLAX)

Arrival

Time N/A
Airport Seattle–Tacoma International Airport (KSEA)
Time Latitude Longitude Altitude Speed Heading
2026-04-25 02:03 33.94627 -118.40493 125 ft 0 kts 105°
2026-04-25 02:18 33.94629 -118.40503 124 ft 3 kts 105°
2026-04-25 02:18 33.94633 -118.40524 126 ft 3 kts 93°
2026-04-25 02:18 33.94633 -118.40545 127 ft 3 kts 68°
2026-04-25 02:19 33.94622 -118.40560 123 ft 1 kts 13°
2026-04-25 02:19 33.94621 -118.40560 123 ft 2 kts 13°
2026-04-25 02:19 33.94612 -118.40561 125 ft 0 kts 351°
2026-04-25 02:20 33.94642 -118.40566 128 ft 8 kts 354°
2026-04-25 02:21 33.94709 -118.40575 127 ft 10 kts 354°
2026-04-25 02:21 33.94780 -118.40587 126 ft 10 kts 349°
2026-04-25 02:21 33.94850 -118.40596 125 ft 8 kts 26°
2026-04-25 02:21 33.94871 -118.40535 127 ft 10 kts 81°
2026-04-25 02:22 33.94880 -118.40451 125 ft 10 kts 83°
2026-04-25 02:22 33.94889 -118.40369 128 ft 10 kts 83°
2026-04-25 02:22 33.94897 -118.40285 128 ft 10 kts 83°
2026-04-25 02:22 33.94906 -118.40197 124 ft 11 kts 83°
2026-04-25 02:23 33.94917 -118.40096 126 ft 13 kts 83°
2026-04-25 02:23 33.94928 -118.39986 128 ft 13 kts 83°
2026-04-25 02:23 33.94950 -118.39927 128 ft 0 kts 42°
2026-04-25 02:24 33.94952 -118.39926 128 ft 1 kts 40°
2026-04-25 02:24 33.94971 -118.39915 125 ft 5 kts 21°
2026-04-25 02:25 33.95028 -118.39928 127 ft 10 kts 318°
2026-04-25 02:25 33.95037 -118.40001 127 ft 7 kts 264°
2026-04-25 02:25 33.95037 -118.40003 127 ft 0 kts 264°
2026-04-25 02:26 33.95019 -118.40178 125 ft 52 kts 263°
2026-04-25 02:26 33.94949 -118.40857 126 ft 111 kts 263°
2026-04-25 02:26 33.94835 -118.41984 176 ft 153 kts 264°
2026-04-25 02:27 33.94705 -118.43273 682 ft 158 kts 263°
2026-04-25 02:27 33.94569 -118.44588 1279 ft 161 kts 262°
2026-04-25 02:27 33.94419 -118.46067 1610 ft 194 kts 264°
2026-04-25 02:27 33.94322 -118.47817 1953 ft 224 kts 268°
2026-04-25 02:28 33.94253 -118.49789 2396 ft 245 kts 267°
2026-04-25 02:28 33.94129 -118.51889 2840 ft 255 kts 265°
2026-04-25 02:28 33.93975 -118.54022 2984 ft 256 kts 264°
2026-04-25 02:28 33.93812 -118.56138 3053 ft 257 kts 264°
2026-04-25 02:29 33.93642 -118.58331 3592 ft 261 kts 264°
2026-04-25 02:29 33.93530 -118.60489 4360 ft 262 kts 271°
2026-04-25 02:29 33.93887 -118.62629 4848 ft 264 kts 292°
2026-04-25 02:29 33.94968 -118.64440 5140 ft 274 kts 318°
2026-04-25 02:30 33.96546 -118.65783 5928 ft 278 kts 326°
2026-04-25 02:30 33.98209 -118.66961 6593 ft 276 kts 333°
2026-04-25 02:30 34.00041 -118.67613 6977 ft 277 kts 353°
2026-04-25 02:30 34.01993 -118.67627 7525 ft 284 kts
2026-04-25 02:31 34.03965 -118.67497 7902 ft 284 kts
2026-04-25 02:31 34.05937 -118.67350 7983 ft 284 kts
2026-04-25 02:31 34.07912 -118.67128 8075 ft 287 kts
2026-04-25 02:31 34.09873 -118.66706 8645 ft 290 kts
2026-04-25 02:32 34.11862 -118.66234 9554 ft 292 kts
2026-04-25 02:32 34.13869 -118.65754 10269 ft 299 kts
2026-04-25 02:32 34.15988 -118.65252 10595 ft 320 kts
2026-04-25 02:32 34.18244 -118.64720 10928 ft 340 kts
2026-04-25 02:33 34.20603 -118.64161 11534 ft 349 kts
2026-04-25 02:33 34.23007 -118.63615 12275 ft 353 kts
2026-04-25 02:33 34.25447 -118.63552 13002 ft 351 kts 349°
2026-04-25 02:33 34.27842 -118.63989 13742 ft 353 kts 345°
2026-04-25 02:34 34.30269 -118.64544 14429 ft 355 kts 344°
2026-04-25 02:34 34.32710 -118.65116 15099 ft 358 kts 344°
2026-04-25 02:34 34.35179 -118.65689 15764 ft 361 kts 343°
2026-04-25 02:34 34.37658 -118.66259 16415 ft 365 kts 343°
2026-04-25 02:35 34.40173 -118.66838 17064 ft 368 kts 343°
2026-04-25 02:35 34.42700 -118.67406 17729 ft 371 kts 344°
2026-04-25 02:35 34.45229 -118.67913 18342 ft 374 kts 344°
2026-04-25 02:35 34.47813 -118.68420 18862 ft 378 kts 344°
2026-04-25 02:36 34.50421 -118.68930 19439 ft 381 kts 344°
2026-04-25 02:36 34.53049 -118.69442 19988 ft 383 kts 344°
2026-04-25 02:36 34.55688 -118.69956 20583 ft 385 kts 343°
2026-04-25 02:36 34.58345 -118.70476 21175 ft 387 kts 343°
2026-04-25 02:37 34.61015 -118.70999 21755 ft 390 kts 343°
2026-04-25 02:37 34.63707 -118.71527 22351 ft 391 kts 343°
2026-04-25 02:37 34.66380 -118.72052 22851 ft 394 kts 343°
2026-04-25 02:37 34.69105 -118.72596 23355 ft 395 kts 341°
2026-04-25 02:38 34.71745 -118.73414 23845 ft 389 kts 333°
2026-04-25 02:38 34.74230 -118.74714 24183 ft 386 kts 325°
2026-04-25 02:38 34.76588 -118.76269 24646 ft 386 kts 323°
2026-04-25 02:38 34.78934 -118.77883 25069 ft 388 kts 323°
2026-04-25 02:39 34.81288 -118.79512 25451 ft 390 kts 323°
2026-04-25 02:39 34.83627 -118.81130 25825 ft 393 kts 323°
2026-04-25 02:39 34.86016 -118.82778 26177 ft 396 kts 323°
2026-04-25 02:39 34.88423 -118.84435 26569 ft 398 kts 323°
2026-04-25 02:40 34.90839 -118.86099 26906 ft 401 kts 323°
2026-04-25 02:40 34.93283 -118.87786 27183 ft 404 kts 323°
2026-04-25 02:40 34.95745 -118.89482 27592 ft 405 kts 323°
2026-04-25 02:40 34.98204 -118.91177 27940 ft 407 kts 322°
2026-04-25 02:41 34.99842 -118.92306 28193 ft 409 kts 322°
2026-04-25 02:41 35.03129 -118.94574 28705 ft 410 kts 322°
2026-04-25 02:41 35.05620 -118.96295 29015 ft 413 kts 322°
2026-04-25 02:41 35.08125 -118.98027 29330 ft 415 kts 322°
2026-04-25 02:42 35.10648 -118.99773 29645 ft 418 kts 322°
2026-04-25 02:42 35.12334 -119.00940 29874 ft 418 kts 322°
2026-04-25 02:42 35.15692 -119.03264 30375 ft 417 kts 322°
2026-04-25 02:42 35.17398 -119.04445 30631 ft 416 kts 322°
2026-04-25 02:43 35.19890 -119.06173 31026 ft 415 kts 321°
2026-04-25 02:43 35.22401 -119.07915 31425 ft 413 kts 321°
2026-04-25 02:43 35.24903 -119.09653 31760 ft 413 kts 321°
2026-04-25 02:43 35.27407 -119.11394 32078 ft 412 kts 321°
2026-04-25 02:44 35.29907 -119.13133 32401 ft 412 kts 320°
2026-04-25 02:44 35.32366 -119.14845 32710 ft 411 kts 320°
2026-04-25 02:44 35.34851 -119.16577 33017 ft 411 kts 320°
2026-04-25 02:44 35.37344 -119.18316 33315 ft 410 kts 320°
2026-04-25 02:45 35.39821 -119.20044 33620 ft 410 kts 320°
2026-04-25 02:45 35.42305 -119.21771 33882 ft 411 kts 320°
2026-04-25 02:45 35.44920 -119.23299 34119 ft 421 kts 328°
2026-04-25 02:45 35.47731 -119.24423 34353 ft 428 kts 333°
2026-04-25 02:46 35.50619 -119.25378 34580 ft 430 kts 334°
2026-04-25 02:46 35.53530 -119.26255 34799 ft 431 kts 335°
2026-04-25 02:46 35.56454 -119.27099 35017 ft 431 kts 336°
2026-04-25 02:46 35.59380 -119.27936 35303 ft 430 kts 336°
2026-04-25 02:47 35.62282 -119.28772 35551 ft 428 kts 336°
2026-04-25 02:47 35.65190 -119.29621 35742 ft 428 kts 336°
2026-04-25 02:47 35.68059 -119.30471 35919 ft 428 kts 336°
2026-04-25 02:47 35.70957 -119.31337 36094 ft 428 kts 336°
2026-04-25 02:48 35.73849 -119.32205 36279 ft 428 kts 335°
2026-04-25 02:48 35.76749 -119.33077 36457 ft 427 kts 336°
2026-04-25 02:48 35.79635 -119.33946 36677 ft 426 kts 336°
2026-04-25 02:48 35.82480 -119.34801 36900 ft 425 kts 336°
2026-04-25 02:49 35.85352 -119.35665 37077 ft 424 kts 336°
2026-04-25 02:49 35.88237 -119.36535 37219 ft 424 kts 336°
2026-04-25 02:49 35.91106 -119.37401 37362 ft 424 kts 336°
2026-04-25 02:49 35.93979 -119.38268 37509 ft 424 kts 336°
2026-04-25 02:50 35.96819 -119.39126 37654 ft 424 kts 336°
2026-04-25 02:50 35.99686 -119.39992 37830 ft 424 kts 336°
2026-04-25 02:50 36.02556 -119.40861 37874 ft 425 kts 336°
2026-04-25 02:51 36.08291 -119.42596 37875 ft 423 kts 336°
2026-04-25 02:51 36.14011 -119.44328 37877 ft 423 kts 336°
2026-04-25 02:52 36.19725 -119.46064 37892 ft 423 kts 336°
2026-04-25 02:52 36.25411 -119.47794 37874 ft 424 kts 336°
2026-04-25 02:53 36.31145 -119.49540 37885 ft 424 kts 336°
2026-04-25 02:53 36.36875 -119.51287 37882 ft 424 kts 336°
2026-04-25 02:54 36.42607 -119.53037 37881 ft 425 kts 337°
2026-04-25 02:54 36.48324 -119.54787 37877 ft 426 kts 336°
2026-04-25 02:55 36.54078 -119.56549 37876 ft 425 kts 336°
2026-04-25 02:55 36.59830 -119.58313 37891 ft 426 kts 337°
2026-04-25 02:56 36.65593 -119.60085 37885 ft 427 kts 337°
2026-04-25 02:56 36.71332 -119.61851 37887 ft 427 kts 337°
2026-04-25 02:57 36.77099 -119.63628 37887 ft 427 kts 337°
2026-04-25 02:57 36.82873 -119.65409 37887 ft 427 kts 337°
2026-04-25 02:58 36.88644 -119.67194 37886 ft 427 kts 337°
2026-04-25 02:58 36.94380 -119.68970 37882 ft 427 kts 337°
2026-04-25 02:59 37.00151 -119.70761 37883 ft 427 kts 338°
2026-04-25 02:59 37.05900 -119.72547 37874 ft 428 kts 338°
2026-04-25 03:00 37.11687 -119.74346 37875 ft 427 kts 337°
2026-04-25 03:00 37.17468 -119.76150 37900 ft 428 kts 338°
2026-04-25 03:01 37.23221 -119.77945 37886 ft 428 kts 338°
2026-04-25 03:01 37.29020 -119.79757 37891 ft 428 kts 338°
2026-04-25 03:02 37.34814 -119.81570 37891 ft 428 kts 338°
2026-04-25 03:02 37.40670 -119.83045 37882 ft 432 kts 342°
2026-04-25 03:03 37.46605 -119.84328 37909 ft 433 kts 342°
2026-04-25 03:03 37.52556 -119.85590 37897 ft 433 kts 342°
2026-04-25 03:04 37.58488 -119.86845 37909 ft 435 kts 343°
2026-04-25 03:04 37.64456 -119.88106 37910 ft 434 kts 343°
2026-04-25 03:05 37.73389 -119.89996 37918 ft 434 kts 343°
2026-04-25 03:05 37.79354 -119.91260 37930 ft 434 kts 343°
2026-04-25 03:06 37.85279 -119.92520 37938 ft 435 kts 343°
2026-04-25 03:06 37.91244 -119.93788 37941 ft 435 kts 343°
2026-04-25 03:07 37.97220 -119.95063 37934 ft 435 kts 344°
2026-04-25 03:07 38.03189 -119.96337 37937 ft 435 kts 344°
2026-04-25 03:08 38.09166 -119.97616 37939 ft 435 kts 344°
2026-04-25 03:08 38.15143 -119.98896 37967 ft 435 kts 344°
2026-04-25 03:09 38.21072 -120.00168 37943 ft 434 kts 344°
2026-04-25 03:09 38.27042 -120.01451 37949 ft 434 kts 344°
2026-04-25 03:10 38.32980 -120.02723 37950 ft 431 kts 344°
2026-04-25 03:10 38.38920 -120.04008 37947 ft 433 kts 344°
2026-04-25 03:11 38.44863 -120.05293 37942 ft 433 kts 344°
2026-04-25 03:11 38.50771 -120.06572 37945 ft 433 kts 344°
2026-04-25 03:12 38.56725 -120.07859 37945 ft 434 kts 344°
2026-04-25 03:12 38.62675 -120.09151 37949 ft 433 kts 344°
2026-04-25 03:13 38.68609 -120.10443 37951 ft 433 kts 344°
2026-04-25 03:13 38.74547 -120.11737 37941 ft 432 kts 345°
2026-04-25 03:14 38.80490 -120.13030 37954 ft 434 kts 344°
2026-04-25 03:14 38.86435 -120.14330 37954 ft 433 kts 344°
2026-04-25 03:15 38.92354 -120.15627 37952 ft 433 kts 344°
2026-04-25 03:15 38.98299 -120.16932 37942 ft 432 kts 344°
2026-04-25 03:16 39.04198 -120.18227 37961 ft 432 kts 344°
2026-04-25 03:16 39.10145 -120.19537 37987 ft 433 kts 344°
2026-04-25 03:17 39.16054 -120.20838 37983 ft 432 kts 345°
2026-04-25 03:17 39.21980 -120.22146 37996 ft 432 kts 344°
2026-04-25 03:18 39.27918 -120.23459 38003 ft 433 kts 345°
2026-04-25 03:18 39.33856 -120.24775 37999 ft 432 kts 345°
2026-04-25 03:19 39.39738 -120.26081 37905 ft 431 kts 344°
2026-04-25 03:19 39.45654 -120.27396 37898 ft 430 kts 344°
2026-04-25 03:20 39.51560 -120.28712 37910 ft 430 kts 345°
2026-04-25 03:20 39.57474 -120.30030 37910 ft 431 kts 345°
2026-04-25 03:21 39.63346 -120.31343 37908 ft 431 kts 345°
2026-04-25 03:21 39.69252 -120.32659 37905 ft 430 kts 345°
2026-04-25 03:22 39.75166 -120.33988 37902 ft 430 kts 345°
2026-04-25 03:22 39.81057 -120.35314 37894 ft 430 kts 345°
2026-04-25 03:23 39.86948 -120.36640 37892 ft 429 kts 345°
2026-04-25 03:23 39.92827 -120.37965 37894 ft 428 kts 345°
2026-04-25 03:24 39.98669 -120.39284 37886 ft 428 kts 345°
2026-04-25 03:24 40.04558 -120.40616 37896 ft 428 kts 345°
2026-04-25 03:25 40.10437 -120.41948 37902 ft 428 kts 345°
2026-04-25 03:25 40.16282 -120.43275 37900 ft 428 kts 345°
2026-04-25 03:26 40.22148 -120.44598 37922 ft 430 kts 345°
2026-04-25 03:26 40.28029 -120.45936 37929 ft 428 kts 345°